Weather Service Report


682 
ASUS44 KFWD 191410
RWRTX 
NORTH TEXAS HOURLY WEATHER ROUNDUP
NATIONAL WEATHER SERVICE FORT WORTH TX
900 AM CDT SUN APR 19 2015

NOTE: "FAIR" INDICATES FEW OR NO CLOUDS BELOW 12,000 FEET WITH NO
SIGNIFICANT WEATHER AND/OR OBSTRUCTIONS TO VISIBILITY.

TXZ118-119-191500-
DALLAS/FORT WORTH METROPLEX
  
CITY           SKY/WX    TMP DP  RH WIND       PRES   REMARKS
DFW AIRPORT    CLOUDY    61  59  93 S9        29.71S                  
DALLAS LOVE    CLOUDY    61  58  90 SE12      29.72F                  
FTW MEACHAM    CLOUDY    63  60  90 S13       29.69F                  
DAL-EXECUTIVE  CLOUDY    61  59  93 VRB3      29.73R                  
FTW-ALLIANCE   CLOUDY    62  60  93 VRB6        N/A                   
FTW-NAS-JRB    CLOUDY    64  61  90 S12       29.74F                  
FTW-SPINKS     CLOUDY    63  61  94 S12G18    29.73R                  
ARLINGTON      CLOUDY    63  59  87 S8        29.72S                  
GRAND PRAIRIE  PTSUNNY   61  61 100 S8        29.74R                  
ADDISON        CLOUDY    61  57  88 SE7       29.73S                  
MESQUITE       CLOUDY    59  57  94 SE6       29.75R                  
LANCASTER      PTSUNNY   59  57  93 S7        29.74S                  
$$

TXZ091>094-102>105-117-120-121-131>134-191500-
NORTH CENTRAL TEXAS
  
CITY           SKY/WX    TMP DP  RH WIND       PRES   REMARKS
SHRMAN/DENISON CLOUDY    61  59  92 SE6       29.73F                  
GAINESVILLE    PTSUNNY   59  56  92 SE7       29.73S                  
BOWIE          MOSUNNY   58  56  90 S3        29.71S                  
BRIDGEPORT     SUNNY     60  58  95 CALM      29.72S                  
DECATUR        PTSUNNY   60  58  93 S6        29.72R                  
DENTON         CLOUDY    60  59  96 S7        29.72R                  
MCKINNEY       PTSUNNY   61  59  93 S10       29.72F                  
GREENVILLE     SUNNY     63  59  88 S9        29.74F                  
ROCKWALL       CLOUDY    61  59  92 S7        29.73S                  
TERRELL        PTSUNNY   63  59  87 S9        29.75F                  
WAXAHACHIE     CLOUDY    61  61 100 S7        29.74S FOG              
CLEBURNE       CLOUDY    61  61 100 S12       29.75R                  
GRANBURY       MOSUNNY   67  63  85 S6        29.73F                  
$$

TXZ083>090-098>101-113>116-127>130-139>142-154-155-191500-
WESTERN NORTH TEXAS
  
CITY           SKY/WX    TMP DP  RH WIND       PRES   REMARKS
WICHITA FALLS  PTSUNNY   57  53  86 CALM      29.73R                  
WF-KICKAPOO    MOSUNNY   58  54  85 CALM      29.74R                  
VERNON         SUNNY     58  51  75 N14       29.79R                  
ABILENE        SUNNY     60  41  49 W17       29.81R                  
ABILENE-DYESS  SUNNY     59  43  55 NW17      29.82R                  
BRECKENRIDGE   SUNNY     62  49  63 W9        29.75R HAZE             
GRAHAM         SUNNY     59  54  84 W8        29.72R                  
MINERAL WELLS  SUNNY     62  58  86 SW10      29.70S                  
STEPHENVILLE   MOSUNNY   65  62  91 SW16G24   29.77S                  
COMANCHE       MOSUNNY   64  64 100 SW17G25   29.77R                  
BROWNWOOD      MOSUNNY   61  61 100 SW7       29.79S FOG              
COLEMAN        SUNNY     63  55  76 W10G21    29.81R                  
BRADY          SUNNY     68  66  94 SW12      29.82R                  
$$

TXZ143>147-156>162-174-175-191500-
CENTRAL TEXAS
  
CITY           SKY/WX    TMP DP  RH WIND       PRES   REMARKS
WACO           CLOUDY    66  63  90 SW14      29.77R                  
WACO-TSTC      CLOUDY    64  64 100 S12       29.77S                  
WACO-MCGREGOR  CLOUDY    64  61  88 SW13G20   29.78R                  
HILLSBORO      CLOUDY    63  60  91 S13       29.75S FOG              
CORSICANA      CLOUDY    62  60  93 S9        29.77S                  
MEXIA          CLOUDY    64  63  96 S15       29.77S                  
HEARNE         CLOUDY    62  61  96 CALM      29.81R                  
CAMERON        CLOUDY    65  64  96 SW9       29.80R FOG              
TEMPLE         PTSUNNY   66  61  82 S14       29.77S                  
KILLEEN        SUNNY     66  64  94 SW13      29.78R                  
FORT HOOD      CLOUDY    65  64  93 SW10      29.78R                  
HAMILTON       SUNNY     67  66  99 SW18      29.78R                  
LAMPASAS       SUNNY     68  65  91 SW12      29.79R                  
$$

TXZ095>097-106>112-122>126-135>138-148>153-164>167-191500-
EAST TEXAS
  
CITY           SKY/WX    TMP DP  RH WIND       PRES   REMARKS
PARIS          SUNNY     61  55  82 MISG      29.76S                  
SULPHUR SPRNGS   N/A     62  58  87 SE7       29.77F                  
MOUNT PLEASANT SUNNY     61  59  93 S5        29.79S                  
GILMER         PTSUNNY   60  58  94 SE6       29.78S                  
TYLER          PTSUNNY   62  58  86 S6        29.78S                  
LONGVIEW       CLOUDY    60  57  89 S3        29.79R                  
MARSHALL       PTSUNNY   61  58  89 SW5       29.82S                  
ATHENS         MOSUNNY   61  59  94 S8        29.76F                  
PALESTINE      CLOUDY    62  61  97 CALM      29.80F                  
JACKSONVILLE   CLOUDY    59  58  98 S3        29.81F FOG              
HENDERSON      CLOUDY    59  58  98 S3        29.81S                  
NACOGDOCHES    CLOUDY    59  57  94 SW6       29.81F                  
LUFKIN         CLOUDY    62  59  90 S3        29.81S                  
$$

SUPPLEMENTAL OBSERVATIONS (CENTRAL)
  
CITY           SKY/WX    TMP DP  RH WIND       PRES   REMARKS
PAT MAYSE LAKE   N/A     61  59  94 S7          N/A                   
GREENVILLE       N/A     64  59  82 S6          N/A                   
CEDAR HILL       N/A     63  59  88 SW7G16      N/A                   
MCGREGOR         N/A     66  63  88 SW7         N/A                   
TEMPLE           N/A     66  64  94 S5          N/A                   
$$

SUPPLEMENTAL OBSERVATIONS (WEST)
  
CITY           SKY/WX    TMP DP  RH WIND       PRES   REMARKS
MILLERS CREEK    N/A     61  54  77 NW16G24     N/A                   
GRANBURY         N/A     68  63  83 SW8         N/A                   
HAMBY            N/A     59  43  55 NW16G23     N/A                   
IVIE RESERVOIR   N/A     66  57  72 W14         N/A                   
COLORADO BEND    N/A     66  61  82 W9          N/A                   
$$

SUPPLEMENTAL OBSERVATIONS (EAST)
  
CITY           SKY/WX    TMP DP  RH WIND       PRES   REMARKS
CLARKSVILLE      N/A    N/A N/A N/A SW5         N/A                   
TEXARKANA        N/A     66  59  77 S2          N/A                   
LINDEN           N/A     64  61  88 SW5         N/A                   
GILMER           N/A     63  57  82 S2          N/A                   
HENDERSON        N/A     59  55  88 S6          N/A                   
LUFKIN           N/A     61  59  94 MISG        N/A                   
N SABINE NF      N/A     61  59  94 MISG        N/A                   
S SABINE NF      N/A     61  59  94 CALM        N/A                   
$$

SUPPLEMENTAL OBSERVATIONS ARE A COLLECTION OF AUTOMATED INSTRUMENTS
THAT ARE MAINTAINED BY A VARIETY OF FEDERAL AND STATE AGENCIES. 
CERTAIN ELEMENTS...SUCH AS HUMIDITY VALUES AND SUSTAINED WIND 
SPEEDS...MAY BE APPROXIMATED.


Return to Home page


Western Regional Climate Center, wrcc@dri.edu